Regional Weather Roundup
Issued by NWS Kansas City/Pleasant Hill, MO

Home | Current Version | Previous Version | Graphics & Text | Print | Product List | Glossary Off
Versions: 1 2 3 4 5 6 7 8 9 10 11 12 13 14 15 16 17 18 19 20 21 22 23 24 25 26 27

000
ASUS43 KEAX 161510
RWREAX

WEATHER ROUNDUP FOR EASTERN KANSAS AND NORTHWEST MISSOURI
NATIONAL WEATHER SERVICE KANSAS CITY/PLEASANT HILL MO
900 AM CST TUE JAN 16 2018

KSZ040-057-103>105-MOZ028-029-037-043-161600-
...KANSAS CITY METROPOLITAN AREA...

CITY           SKY/WX    TMP DP  RH WIND       PRES   REMARKS
K.C. INTL      LGT SNOW  -2  -8  76 NW10      30.73R WCI -19
K.C. DOWNTOWN  CLOUDY     1  -7  68 NW14G20   30.77R WCI -17
LEES SUMMIT    CLOUDY    -1  -7  75 NW14      30.73R WCI -20
OLATHE - IXD   PTSUNNY   -2  -8  76 NW13      30.75R WCI -20
OLATHE - OJC   CLOUDY    -2  -8  76 NW13G21   30.73R WCI -20
LAWRENCE       SUNNY      1  -6  72 NW12      30.78R WCI -16

$$

MOZ001>008-011>017-020>025-030>033-038>040-044>046-053-054-161600-
...NORTHERN AND CENTRAL MISSOURI...

CITY           SKY/WX    TMP DP  RH WIND       PRES   REMARKS
ST. JOSEPH       N/A    N/A N/A N/A MISG      30.77R
MOSBY          CLOUDY     1  -6  71 NW12      30.75R WCI -15
WARRENSBURG    PTSUNNY    0  -9  65 NW6       30.75R WCI -12
WHITEMAN AFB   MOSUNNY   -2 -11  65 NW10      30.68S WCI -19
CLINTON        MOSUNNY    0  -9  65 NW8       30.75S WCI -15
SEDALIA        MOSUNNY   -1  -8  72 NW10      30.72R WCI -17
WARSAW         NOT AVBL
CHILLICOTHE      N/A      0  -8  69 NW10G17   30.73R WCI -16
KIRKSVILLE     MOSUNNY   -4  -9  79 W8        30.66R WCI -19

$$

MOZ041-047>049-056>058-063>065-088>090-097-161600-
...EASTERN AND SOUTHERN MISSOURI...

CITY           SKY/WX    TMP DP  RH WIND       PRES   REMARKS
ST. LOUIS INTL FLURRIES   1  -6  72 NW15      30.67R WCI -18
SPIRIT OF STL  CLOUDY     1  -7  68 W12       30.69S WCI -16
COLUMBIA       SUNNY     -1  -9  68 NW14      30.68R WCI -20
JEFFERSON CITY PTSUNNY   -1  -9  68 NW13      30.75R WCI -19
ROLLA          SUNNY     -3  -9  75 NW14      30.66R WCI -22
OSAGE BEACH    MOSUNNY    1  -7  68 VRB7      30.73R WCI -12
SPRINGFIELD    CLOUDY    -2 -10  69 NW8       30.69R WCI -17
BRANSON        MOSUNNY    0  -9  65 NW9G18    30.71R WCI -16
JOPLIN         CLOUDY    -2  -9  72 NW9       30.78R WCI -18
WEST PLAINS    SUNNY      1  -8  66 NW10G18   30.67R WCI -15

$$

IAZ060-094-KSZ022-034>040-054-083-096-NEZ052-066-093-161600-
...KANSAS...SOUTHEAST NEBRASKA AND IOWA...

CITY           SKY/WX    TMP DP  RH WIND       PRES   REMARKS
TOPEKA         MOSUNNY    0  -7  72 NW8       30.79R WCI -14
MANHATTAN      SUNNY      1  -7  68 NW6       30.80R WCI -10
EMPORIA        CLOUDY     1  -6  72 NW13      30.77R WCI -17
CHANUTE        SUNNY      2  -6  69 NW12      30.80R WCI -15
WICHITA        SUNNY      5  -5  63 N17       30.79R WCI -14
OMAHA          FLURRIES   0  -7  72 NW16      30.77R WCI -20
LINCOLN        CLOUDY     1  -6  72 N15G23    30.78R WCI -18
FALLS CITY     SUNNY     -1  -9  68 NW16G24   30.76R WCI -21
LAMONI         CLOUDY    -2  -9  72 NW14      30.67R WCI -21
DES MOINES     FLURRIES  -2  -9  72 NW14      30.69R WCI -21

$$





USA.gov is the U.S. government's official web portal to all federal, state and local government web resources and services.